Retour au catalogue

SJ-11-08

ActifScienceSSO
NORAD 40286·PAYLOAD·🇨🇳 China

Lancé Oct 27, 2014 depuis Jiuquan Satellite Launch Center

Loading…

Prochains Passages (prochaines 24 heures)

TLE

FraisSource: Space-Track

Époque: Sep 14, 2026, 15:40 UTC

1 40286U 14066A   26257.65329833  .00000443  00000-0  89690-4 0  9995
2 40286  98.3652  44.1088 0011202 316.3215  43.7100 14.66257771634326

Suivez SJ-11-08 en temps réel avec AllMySat

Download on the App Store